Regional Weather Roundup
Issued by NWS Albany, NY

Home | Current Version | Previous Version | Graphics & Text | Print | Product List | Glossary Off
Versions: 1 2 3 4 5 6 7 8 9 10 11 12 13 14 15 16 17 18 19 20 21 22 23 24 25 26 27 28 29 30 31 32 33 34 35 36 37 38 39 40 41 42 43 44 45 46 47 48 49 50

000
ASUS41 KALY 290810
RWRALY

NEW YORK STATE HOURLY WEATHER ROUNDUP
NATIONAL WEATHER SERVICE ALBANY NY
400 AM EDT MON JUN 29 2015

NOTE: "FAIR" INDICATES FEW OR NO CLOUDS BELOW 12,000 FEET WITH NO
SIGNIFICANT WEATHER AND/OR NO OBSTRUCTIONS TO VISIBILITY.

NYZ032-033-038>043-046>054-057>066-NYZ062>081-290900-
EAST


CITY           SKY/WX    TMP DP  RH WIND       PRES   REMARKS
ALBANY         CLOUDY    58  56  93 CALM      29.76R
GLENS FALLS    CLOUDY    56  54  93 S5        29.74R
POUGHKEEPSIE   MOCLDY    62  58  86 VRB5      29.76R
NEWBURGH       PTCLDY    59  57  94 W9        29.80R
MONTGOMERY     CLEAR     59  55  87 S9        29.78R
WHITE PLAINS   CLOUDY    62  58  86 SW3       29.79R
ISLIP          PTCLDY    62  59  90 W7        29.77R
NEW YORK CITY  PTCLDY    66  53  63 W14       29.79R
CENTRAL PARK   CLEAR     65  54  67 W5        29.83R
$$

NYZ005>009-017-018-044>046-055-056-290900-
CENTRAL


CITY           SKY/WX    TMP DP  RH WIND       PRES   REMARKS
FULTON         CLOUDY    57  56  96 W7        29.79R FOG
SYRACUSE       LGT RAIN  58  58 100 W9        29.78R
ROME           LGT RAIN  57  56  96 W7        29.78R FOG
ELMIRA         CLOUDY    58  55  90 CALM      29.80S
BINGHAMTON     CLOUDY    55  53  93 W8        29.81R
MONTICELLO     CLOUDY    55  54  94 W7        29.82R
$$

NYZ026>034-041>043-290900-
NORTH


CITY           SKY/WX    TMP DP  RH WIND       PRES   REMARKS
WATERTOWN      CLOUDY    58  56  93 W5        29.76R
FORT DRUM      NOT AVBL
MASSENA        CLOUDY    55  54  96 N6        29.75R FOG
SARANAC LAKE   CLOUDY    53  53 100 SW5       29.72R FOG
PLATTSBURGH    CLOUDY    56  54  93 CALM      29.71S FOG
$$

NYZ001>004-010>016-019>021-290900-
WEST


CITY           SKY/WX    TMP DP  RH WIND       PRES   REMARKS
NIAGARA FALLS  CLOUDY    58  55  90 W9        29.84S
BUFFALO        CLOUDY    58  55  90 W10       29.84S
DUNKIRK        MOCLDY    58  55  90 W7        29.87F
JAMESTOWN      PTCLDY    54  50  87 W6        29.89F
WELLSVILLE     LGT RAIN  55  53  93 W8        29.87S FOG
ROCHESTER      CLOUDY    59  57  93 W6        29.82R FOG
PENN YAN       CLOUDY    58  55  90 SW5       29.83R
$$

             KEY
       WCI = WIND CHILL INDEX
       VSB = VISIBILITY
       HX  = HEAT INDEX
$$


USA.gov is the U.S. government's official web portal to all federal, state and local government web resources and services.